Hourly Data Report for October 23, 2003

SHERBROOKE A
QUEBEC

45°26'00.000" N
71°41'00.000" W
241.40 m
7028124
71610
YSC

Download Data

Hourly Data (October 2003)
Hourly Data Report for October 23, 2003
TIME
LST
Temp Definition
°C
Dew Point Definition
°C
Rel Hum Definition
%
Precip. Amount Definition
mm

Wind Dir Definition
10's deg

Wind Spd Definition
km/h
Visibility Definition
km
Stn Press Definition
kPa
Hmdx Definition


Wind Chill Definition


Weather Definition


00:00 -0.2 -2.7 83   36 4 4.8 97.33   -1 Snow
01:00 -0.3 -2.2 87   36 7 4.8 97.28   -3 Snow
02:00 -0.6 -2.2 89   32 6 8.0 97.20   -3 Snow
03:00 -0.5 -2.4 87   32 11 5.6 97.13   -4 Snow
04:00 -0.7 -2.6 87   33 11 11.3 97.09   -4 Snow
05:00 -0.7 -2.9 85   32 9 15.0 97.07   -4 Snow
06:00 -0.7 -2.9 85   32 4 15.0 97.06   -2 Snow
07:00 -0.7 -2.9 85   33 7 4.8 97.05   -3 Snow
08:00 -0.2 -2.5 84   32 9 4.0 97.03   -3 Snow
09:00 0.2 -2.2 84   33 11 4.8 97.01     Snow
10:00 0.5 -1.2 88   30 9 4.0 96.96     Snow
11:00 0.9 -1.1 86   32 9 9.7 96.92     Snow
12:00 1.6 -0.2 88   29 13 4.8 96.86     Snow
13:00 1.4 -0.6 87   30 13 6.4 96.85     Snow
14:00 1.2 -1.2 84   30 17 2.0 96.86     Snow
15:00 1.3 -3.6 70   30 17 24.1 96.91     Snow
16:00 0.9 -3.8 71   28 15 24.1 96.96     Cloudy
17:00 0.8 -4.3 69   27 13 15.0 97.03     Snow
18:00 0.6 -4.0 71   26 11 15.0 97.08      
19:00 1.1 -4.2 68   27 17 15.0 97.14     Snow
20:00 1.1 -4.4 67   29 9 15.0 97.21     Snow
21:00 1.0 -4.6 66   28 17 15.0 97.24      
22:00 0.9 -5.1 64   28 17 15.0 97.30     Snow
23:00 0.7 -5.1 65   28 19 15.0 97.34     Snow

Notes on Data Quality.

Legend

  • E = Estimated
  • M = Missing
  • NA = Not Available*
  • [empty] = Indicates an unobserved value
Date modified: